changsha , China , ASIA

  • Wednesday
    February 22

      Light rain

      37 °F

      Northwest

       

  • Thursday
    February 23

    Overcast  Light rain

    48 °F  39 °F

    Northwest  Northwest

        

  • Friday
    February 24

    Overcast  Light rain

    52 °F  43 °F

    Northwest  North

        

  • Saturday
    February 25

    Cloudy  Cloudy

    55 °F  41 °F

    North  North

        

  • Sunday
    February 26

    Sunny  Sunny

    61 °F  43 °F

    North  North

        

  • Monday
    February 27

    Sunny  Sunny

    64 °F  50 °F

    North  Northwest

        

  • Tuesday
    February 28

    Cloudy  Cloudy

    63 °F  46 °F

    Northwest  Northwest

        

Date   Weather Temperature Humidity Total_rain Visibility Wind
23:00 Cloudy 42°F 93.4% 0mm 999.9km Northeast  1.8m/s
02:00 Overcast 40°F 96.5% 0mm 999.9km Northeast  1.9m/s
05:00 Light rain 38°F 90.4% 0.4mm 999.9km Northeast  2.0m/s
08:00 Light rain 47°F 90.1% 2.1mm 999.9km Northeast  2.1m/s
11:00 Overcast 47°F 89.7% 0mm 999.9km Northeast  2.2m/s
14:00 Overcast 48°F 87.1% 0mm 999.9km Northeast  2.0m/s
17:00 Overcast 48°F 79.8% 0mm 999.9km Northeast  1.9m/s
20:00 Overcast 48°F 75.9% 0mm 999.9km Northeast  1.7m/s
23:00 Light rain 43°F 90.6% 1mm 999.9km Northeast  1.7m/s
02:00 Light rain 42°F 93.8% 1mm 999.9km Northeast  1.7m/s
05:00 Moderate rain 40°F 94.3% 3.2mm 999.9km Northeast  1.8m/s
08:00 Light rain 40°F 96.3% 1mm 999.9km Northeast  1.7m/s
11:00 Overcast 50°F 87.2% 0mm 999.9km Northeast  1.6m/s
14:00 Overcast 50°F 84.3% 0mm 999.9km Northeast  1.3m/s
17:00 Overcast 51°F 85.8% 0mm 999.9km Northeast  0.4m/s
20:00 Overcast 50°F 87.7% 0mm 999.9km Northeast  0.9m/s
23:00 Overcast 46°F 89.1% 0mm 999.9km Northwest  0.4m/s
02:00 Moderate rain 45°F 92.7% 3.4mm 999.9km Northeast  1.1m/s
05:00 Light rain 43°F 91.7% 2.3mm 999.9km Northeast  1.2m/s
08:00 Light rain 43°F 91.3% 0.4mm 999.9km Northeast  1.0m/s
11:00 Cloudy 53°F 84.6% 0mm 999.9km Northeast  1.2m/s
14:00 Cloudy 54°F 81.5% 0mm 999.9km Northeast  1.2m/s
17:00 Cloudy 55°F 87.1% 0mm 999.9km Southeast  0.6m/s
20:00 Cloudy 52°F 74.9% 0mm 999.9km Southwest  1.1m/s
23:00 Cloudy 44°F 90.6% 0mm 999.9km Southwest  1.0m/s
02:00 Cloudy 43°F 91.3% 0mm 999.9km Southwest  0.7m/s
05:00 Cloudy 42°F 92.3% 0mm 999.9km Northwest  0.6m/s
08:00 Cloudy 41°F 94% 0mm 999.9km Northeast  1.1m/s
11:00 Sunny 53°F 74.7% 0mm 999.9km Northeast  1.1m/s
14:00 Sunny 60°F 68.2% 0mm 999.9km Northeast  1.4m/s
17:00 Sunny 58°F 68% 0mm 999.9km Northeast  1.6m/s
20:00 Sunny 54°F 59.4% 0mm 999.9km Northeast  1.8m/s
23:00 Sunny 49°F 87.6% 0mm 999.9km Northeast  1.4m/s
02:00 Sunny 47°F 93.2% 0mm 999.9km Northeast  1.2m/s
05:00 Sunny 44°F 92.9% 0mm 999.9km Northeast  1.3m/s
08:00 Sunny 43°F 91.4% 0mm 999.9km Southeast  0.7m/s
11:00 Sunny 56°F 64.5% 0mm 999.9km Northeast  3.2m/s
14:00 Sunny 62°F 65.4% 0mm 999.9km Southeast  0.7m/s
17:00 Sunny 64°F 67.6% 0mm 999.9km Northeast  0.2m/s
20:00 Sunny 56°F 69.8% 0mm 999.9km Northeast  1.4m/s
23:00 Sunny 54°F 91.9% 0mm 999.9km Northeast  1.5m/s
02:00 Sunny 50°F 87.2% 0mm 999.9km Southeast  1.2m/s
05:00 Sunny 51°F 82.5% 0mm 999.9km Northeast  1.7m/s
08:00 Sunny 51°F 80.1% 0mm 999.9km Southeast  0.1m/s
11:00 Cloudy 62°F 77.6% 0mm 999.9km Northeast  2.3m/s
14:00 Cloudy 59°F 63.6% 0mm 999.9km Northeast  1.4m/s
17:00 Cloudy 59°F 59.8% 0mm 999.9km Northwest  1.3m/s
20:00 Cloudy 59°F 55.9% 0mm 999.9km Northeast  1.2m/s
23:00 Cloudy 56°F 87.2% 0mm 999.9km Northwest  2.0m/s
02:00 Cloudy 51°F 86.8% 0mm 999.9km Northeast  1.4m/s
05:00 Cloudy 48°F 86.4% 0mm 999.9km Northwest  3.0m/s